www.pogodaiklimat.ru

Погода и климат >> Архив погоды >> Италия >> Болонья


ПОГОДА в Болонье

  • Прогноз погоды в Болонье
  • Монитор погоды в Болонье

АРХИВ ПОГОДЫ в Болонье

Время (UTC), дата Ветер
(напр.,м/с)
 
Видим.   Явления Облачность Т
(С)
Тd
(С)
f
(%)
Тe
(С)
Тes
(С)
Комфортность P
(гПа)
Po
(гПа)
Тmin
(С)
Tmax
(С)
R
(мм)
R24
(мм)
S
(см)
10 16.09 В 1 н/о н/о +26.4 +17.1 57 +30 +30 душно 1019.6 1013.9
11 16.09 СЗ 1 н/о н/о +28.8 +18.2 53 +34 +34 очень
душно
1018.8 1013.2
12 16.09 Ю 2 н/о н/о +28.7 +17.5 51 +33 +33 очень
душно
1018.2 1012.6
13 16.09 Ю 2 н/о н/о +30.5 +18.9 50 +36 +36 очень
душно
1017.4 1011.8
14 16.09 С 3 н/о н/о +30.4 +18.1 48 +35 +35 очень
душно
1016.4 1010.8
15 16.09 Ю 3 н/о н/о +30.7 +18.7 49 +36 +36 очень
душно
1015.9 1010.3
16 16.09 Ю 1 н/о н/о +30.0 +18.1 49 +35 +35 очень
душно
1015.5 1009.9
17 16.09 Ю 2 н/о н/о +29.3 +17.8 50 +34 +34 очень
душно
1015.4 1009.8
18 16.09 ЮЗ 4 н/о н/о +27.2 +17.3 55 +31 +31 душно 1015.4 1009.8 +31.3
19 16.09 ЮЗ 2 н/о н/о +25.5 +16.8 59 +29 +29 душно 1016.0 1010.3
20 16.09 штиль 0 н/о н/о +24.5 +16.7 62 +28 +28 душно 1016.1 1010.4
21 16.09 С 1 н/о н/о +22.8 +16.5 68 +27 +27 душно 1016.4 1010.7
22 16.09 С 1 н/о н/о +21.9 +16.8 73 +26 +26 душно 1016.4 1010.7
23 16.09 С 3 н/о н/о +21.6 +15.8 70 +25 +25 комфорт 1016.2 1010.5
00 17.09 С 2 н/о н/о +21.3 +14.6 66 +24 +24 комфорт 1016.1 1010.3
01 17.09 СЗ 4 н/о н/о +22.1 +14.6 62 +25 +25 комфорт 1015.5 1009.8
02 17.09 С 3 н/о н/о +22.0 +14.0 60 +25 +25 комфорт 1015.2 1009.5
03 17.09 С 3 н/о н/о +21.4 +14.0 63 +24 +24 комфорт 1015.0 1009.3
04 17.09 С 3 н/о н/о +20.4 +13.5 65 +23 +23 комфорт 1015.1 1009.3
05 17.09 С 3 н/о н/о +19.9 +14.4 71 +22 +22 комфорт 1015.4 1009.6
06 17.09 С 3 н/о н/о +20.6 +14.6 68 +24 +24 комфорт 1015.6 1009.8 +19.6 504
07 17.09 С 2 н/о н/о +22.3 +15.3 65 +26 +26 жарко 1015.6 1009.9
08 17.09 СВ 3 н/о н/о +24.2 +16.4 62 +28 +28 душно 1015.9 1010.2
09 17.09 СВ 2 н/о н/о +25.7 +17.0 59 +30 +30 душно 1015.8 1010.1
10 17.09 СВ 4 н/о н/о +27.2 +18.2 58 +32 +32 очень
душно
1015.3 1009.7
11 17.09 В 4 н/о н/о +28.4 +17.8 53 +33 +33 очень
душно
1014.6 1009.0
12 17.09 В 3 н/о н/о +29.4 +18.8 53 +35 +35 очень
душно
1013.8 1008.2
13 17.09 ЮВ 3 н/о н/о +30.5 +19.2 51 +36 +36 очень
душно
1013.2 1007.6
14 17.09 ЮЗ 3 н/о н/о +30.9 +19.2 50 +37 +37 очень
душно
1012.7 1007.1
15 17.09 Ю 3 н/о н/о +31.0 +19.3 50 +37 +37 очень
душно
1012.1 1006.6
16 17.09 ЮВ 5 н/о н/о +30.6 +19.0 50 +36 +36 очень
душно
1011.9 1006.3
17 17.09 С 6 н/о н/о +28.8 +18.2 53 +34 +34 очень
душно
1012.0 1006.4
18 17.09 С 6 н/о н/о +27.2 +16.4 52 +31 +31 душно 1012.0 1006.4 +31.4
19 17.09 СЗ 5 н/о н/о +26.0 +15.9 54 +29 +29 душно 1012.3 1006.7
20 17.09 С 6 н/о н/о +25.1 +15.9 57 +28 +28 жарко 1012.5 1006.8
21 17.09 С 6 н/о н/о +24.4 +16.1 60 +28 +28 душно 1012.8 1007.1
22 17.09 С 5 н/о н/о +23.7 +16.2 63 +27 +27 жарко 1013.0 1007.3
23 17.09 С 2 н/о н/о +23.2 +15.9 64 +28 +28 душно 1013.2 1007.5
00 18.09 С 2 н/о н/о +22.4 +15.9 67 +27 +27 душно 1013.5 1007.8
01 18.09 С 3 н/о н/о +22.1 +15.1 65 +26 +26 душно 1013.7 1008.0
02 18.09 С 2 н/о н/о +21.8 +14.6 64 +25 +25 комфорт 1013.6 1007.9
03 18.09 С 1 н/о н/о +21.1 +13.9 63 +24 +24 комфорт 1013.8 1008.1
04 18.09 С 2 н/о н/о +20.5 +13.8 65 +24 +24 комфорт 1014.1 1008.3
05 18.09 С 2 н/о н/о +20.2 +14.2 68 +23 +23 комфорт 1014.3 1008.5
06 18.09 С 2 н/о н/о +20.6 +14.6 68 +24 +24 комфорт 1014.8 1009.0 +20.1 605
07 18.09 С 1 н/о н/о +22.4 +15.4 65 +26 +26 жарко 1015.3 1009.6
08 18.09 В 2 н/о н/о +23.2 +15.4 62 +27 +27 душно 1015.6 1009.9
09 18.09 В 2 н/о н/о +24.1 +16.8 64 +28 +28 душно 1015.6 1009.9
10 18.09 В 2 н/о н/о +24.4 +17.6 66 +28 +28 душно 1015.8 1010.1
11 18.09 ЮВ 2 н/о н/о +25.9 +18.3 63 +31 +31 очень
душно
1015.5 1009.8
12 18.09 В 2 н/о н/о +27.9 +19.1 59 +33 +33 очень
душно
1015.0 1009.4
13 18.09 ЮЗ 2 н/о н/о +27.7 +18.6 58 +33 +33 очень
душно
1014.6 1009.0
14 18.09 ЮЗ 6 н/о н/о +27.9 +19.1 59 +33 +33 очень
душно
1014.4 1008.8
15 18.09 Ю 3 н/о н/о +25.7 +19.8 70 +31 +31 очень
душно
1014.2 1008.5
16 18.09 ЮЗ 6 н/о н/о +25.8 +18.7 65 +31 +31 очень
душно
1014.7 1009.0
18 18.09 Ю 7 н/о н/о +22.6 +18.7 79 +28 +28 душно 1015.7 1010.0 +28.5
19 18.09 ЮЗ 6 н/о н/о +22.7 +18.2 76 +28 +28 душно 1016.1 1010.4
20 18.09 Ю 3 н/о н/о +21.9 +17.4 76 +26 +26 душно 1016.5 1010.8
21 18.09 Ю 4 н/о н/о +21.0 +17.5 80 +25 +25 комфорт 1017.2 1011.4
22 18.09 Ю 3 н/о н/о +20.9 +17.6 81 +25 +25 комфорт 1017.1 1011.3
23 18.09 ЮЗ 3 н/о н/о +20.8 +17.5 81 +25 +25 комфорт 1016.9 1011.1
00 19.09 Ю 3 н/о н/о +19.4 +16.4 83 +22 +22 комфорт 1017.6 1011.8
01 19.09 ЮЗ 3 н/о н/о +18.7 +15.9 84 +20 +20 1017.5 1011.7
02 19.09 ЮВ 2 н/о н/о +17.8 +14.8 83 +19 +19 1017.8 1012.0
03 19.09 Ю 2 н/о н/о +16.2 +13.0 81 +17 +17 1017.9 1012.0
05 19.09 СВ 1 н/о н/о +15.2 +12.5 84 +16 +16 1018.3 1012.4
06 19.09 В 1 н/о н/о +15.1 +12.8 86 +16 +16 1018.6 1012.7 +15.0 2 1
07 19.09 В 2 н/о н/о +15.0 +12.7 86 +15 +15 1019.4 1013.5
08 19.09 В 4 н/о н/о +15.1 +12.4 84 +14 +14 1019.9 1014.0
09 19.09 В 3 н/о н/о +15.2 +12.3 83 +14 +14 1020.3 1014.4
10 19.09 В 2 н/о н/о +15.3 +12.2 82 +15 +15 1020.6 1014.7
11 19.09 В 2 н/о н/о +15.5 +12.4 82 +16 +16 1020.9 1015.0
12 19.09 СВ 2 н/о н/о +14.4 +11.7 84 +14 +14 1020.9 1015.0 2
13 19.09 С 1 н/о н/о +15.1 +12.8 86 +16 +16 1020.5 1014.6
14 19.09 СВ 3 н/о н/о +16.5 +13.9 85 +16 +16 1020.3 1014.4
15 19.09 В 1 н/о н/о +17.4 +14.6 84 +18 +18 1020.5 1014.6
16 19.09 В 1 н/о н/о +17.7 +14.7 83 +19 +19 1020.2 1014.4
17 19.09 В 2 н/о н/о +17.7 +14.7 83 +18 +18 1020.6 1014.8
18 19.09 В 1 н/о н/о +16.8 +13.8 82 +18 +18 1021.3 1015.4 +18.0 2
19 19.09 штиль 0 н/о н/о +16.7 +13.9 84 +17 +17 1022.1 1016.2
20 19.09 штиль 0 н/о н/о +15.9 +13.1 83 +16 +16 1022.9 1017.0
21 19.09 С 2 н/о н/о +15.6 +13.2 86 +16 +16 1023.3 1017.4
22 19.09 С 3 н/о н/о +15.4 +12.8 84 +15 +15 1023.7 1017.8
23 19.09 С 2 н/о н/о +15.0 +12.7 86 +15 +15 1024.1 1018.2
00 20.09 С 2 н/о н/о +14.8 +12.6 87 +14 +14 1024.4 1018.5
01 20.09 С 2 н/о н/о +14.9 +12.6 86 +15 +15 1024.5 1018.6
02 20.09 С 2 н/о н/о +15.1 +12.8 86 +15 +15 1024.8 1018.9
03 20.09 В 2 н/о н/о +14.3 +11.8 85 +14 +14 1024.8 1018.9
04 20.09 СВ 1 н/о н/о +13.9 +11.4 85 +15 +15 1024.7 1018.8
05 20.09 В 1 н/о н/о +13.9 +11.7 87 +14 +14 1024.8 1018.9
06 20.09 ЮЗ 1 н/о н/о +13.9 +10.7 81 +14 +14 1025.3 1019.3 +13.2 0.2 1
07 20.09 З 1 н/о н/о +14.9 +10.7 76 +16 +16 1025.7 1019.8
08 20.09 С 1 н/о н/о +16.1 +12.0 77 +17 +17 1026.2 1020.3
09 20.09 СЗ 1 н/о н/о +17.6 +12.5 72 +19 +19 1020.5
10 20.09 Ю 1 н/о н/о +18.3 +11.3 64 +20 +20 1026.4 1020.5
11 20.09 ЮЗ 2 н/о н/о +19.6 +11.3 59 +21 +21 комфорт 1025.8 1020.0
12 20.09 ЮЗ 3 н/о н/о +20.6 +11.5 56 +23 +23 комфорт 1025.2 1019.4
13 20.09 ЮВ 3 н/о н/о +21.0 +11.6 55 +24 +24 комфорт 1024.9 1019.1
14 20.09 Ю 4 н/о н/о +20.7 +10.7 53 +23 +23 комфорт 1024.6 1018.8
15 20.09 ЮЗ 3 н/о н/о +20.4 +10.2 52 +22 +22 комфорт 1024.4 1018.6
17 20.09 Ю 4 н/о н/о +19.4 +9.2 52 +20 +20 1024.3 1018.5
18 20.09 ЮЗ 4 н/о н/о +18.1 +8.6 54 +18 +18 1024.7 1018.8 +22.1
19 20.09 ЮЗ 2 н/о н/о +16.9 +8.0 56 +17 +17 1025.2 1019.3
20 20.09 ЮЗ 1 н/о н/о +15.8 +7.5 58 +17 +17 1025.3 1039.4
21 20.09 СЗ 1 н/о н/о +14.0 +7.2 64 +14 +14 1025.7 1019.7
22 20.09 С 2 н/о н/о +13.3 +8.9 75 +13 +13 1025.8 1019.8
23 20.09 С 2 н/о н/о +12.8 +8.8 77 +12 +12 1025.7 1019.7
00 21.09 С 3 н/о н/о +12.3 +8.5 78 +11 +11 1025.9 1019.9
01 21.09 С 3 н/о н/о +11.6 +8.4 81 +10 +10 1025.6 1019.6
02 21.09 С 4 н/о н/о +11.2 +7.8 80 +9 +9 1025.4 1019.4
03 21.09 С 3 н/о н/о +10.7 +7.7 82 +9 +9 1025.3 1019.3
04 21.09 СВ 4 н/о н/о +10.4 +7.4 82 +8 +8 1025.3 1019.3
05 21.09 С 4 н/о н/о +9.9 +6.9 82 +7 +7 1025.5 1019.5
06 21.09 С 2 н/о н/о +10.5 +7.5 82 +10 +10 1025.4 1019.4 +9.8 505
07 21.09 С 2 н/о н/о +12.6 +8.0 74 +12 +12 1025.6 1019.6
08 21.09 СВ 1 н/о н/о +14.8 +8.7 67 +15 +15 1025.9 1020.0
09 21.09 СВ 1 н/о н/о +16.9 +9.8 63 +18 +18 1025.6 1019.7
10 21.09 ЮЗ 1 н/о н/о +18.8 +9.8 56 +20 +20 1025.3 1019.4
11 21.09 Ю 2 н/о н/о +20.6 +9.8 50 +23 +23 комфорт 1024.9 1019.1
12 21.09 Ю 3 н/о н/о +21.2 +8.4 44 +22 +22 комфорт 1024.2 1018.4
13 21.09 Ю 4 н/о н/о +21.7 +8.5 43 +23 +23 комфорт 1023.8 1018.0
14 21.09 Ю 2 н/о н/о +22.1 +8.5 42 +23 +23 комфорт 1023.2 1017.4
15 21.09 ЮЗ 3 н/о н/о +22.5 +9.2 43 +24 +24 комфорт 1022.1 1016.3
16 21.09 Ю 5 н/о н/о +21.6 +8.8 44 +23 +23 комфорт 1021.9 1016.1
17 21.09 ЮЗ 3 н/о н/о +21.2 +10.0 49 +23 +23 комфорт 1021.9 1016.1
18 21.09 ЮЗ 1 н/о н/о +19.9 +10.3 54 +22 +22 комфорт 1021.8 1016.0 +22.8
19 21.09 ЮЗ 3 н/о н/о +17.9 +9.7 59 +18 +18 1022.4 1016.5
20 21.09 З 3 н/о н/о +17.9 +10.5 62 +18 +18 1022.4 1016.5
21 21.09 ЮЗ 2 н/о н/о +16.8 +10.1 65 +17 +17 1021.7 1015.8
22 21.09 С 2 н/о н/о +15.4 +9.2 67 +16 +16 1021.3 1015.4
23 21.09 С 3 н/о н/о +15.6 +9.9 69 +15 +15 1021.6 1015.7
00 22.09 С 2 н/о н/о +15.3 +9.2 67 +15 +15 1020.9 1015.0
01 22.09 СЗ 2 н/о н/о +16.0 +9.6 66 +16 +16 1020.5 1014.6
02 22.09 ЮЗ 2 н/о н/о +15.4 +10.1 71 +16 +16 1019.8 1013.9
03 22.09 ЮЗ 1 н/о н/о +15.8 +10.9 73 +16 +16 1019.4 1013.5
04 22.09 В 1 н/о н/о +15.8 +10.7 72 +17 +17 1019.3 1013.4
05 22.09 В 2 н/о н/о +15.0 +11.4 79 +15 +15 1018.6 1012.7
06 22.09 СВ 3 н/о н/о +14.8 +11.3 80 +14 +14 1019.1 1013.2 +14.6 405
07 22.09 СВ 3 н/о н/о +15.2 +12.1 82 +15 +15 1019.7 1013.8
08 22.09 СВ 4 н/о н/о +14.7 +11.8 83 +14 +14 1020.4 1014.5
09 22.09 В 4 н/о н/о +14.5 +11.8 84 +13 +13 1019.6 1013.7
10 22.09 СВ 3 н/о н/о +14.6 +11.9 84 +14 +14 1019.5 1013.6
11 22.09 В 3 н/о н/о +15.0 +12.3 84 +14 +14 1019.3 1013.4
12 22.09 В 2 н/о н/о +15.5 +12.6 83 +15 +15 1019.0 1013.1 3
13 22.09 СВ 1 н/о н/о +15.8 +12.8 82 +16 +16 1018.4 1012.5
14 22.09 СВ 2 н/о н/о +16.2 +13.0 81 +17 +17 1017.9 1012.0
15 22.09 СВ 1 н/о н/о +16.4 +13.4 82 +17 +17 1017.8 1011.9
16 22.09 СВ 1 н/о н/о +16.3 +13.3 82 +18 +18 1017.7 1011.8
17 22.09 СВ 1 н/о н/о +16.3 +13.3 82 +17 +17 1017.6 1011.7
18 22.09 С 1 н/о н/о +15.8 +13.0 83 +16 +16 1017.5 1011.6 +16.6 5
19 22.09 С 1 н/о н/о +15.3 +12.6 84 +16 +16 1017.1 1011.2
20 22.09 С 1 н/о н/о +15.5 +12.9 84 +16 +16 1017.0 1011.1
21 22.09 СВ 1 н/о н/о +15.2 +12.7 85 +16 +16 1016.6 1010.7
22 22.09 СВ 1 н/о н/о +15.2 +12.7 85 +16 +16 1016.4 1010.5
23 22.09 штиль 0 н/о н/о +15.3 +12.9 86 +15 +15 1016.1 1010.2
00 23.09 СВ 1 н/о н/о +15.2 +12.8 86 +16 +16 1015.9 1010.0 3
01 23.09 В 1 н/о н/о +15.2 +12.8 86 +16 +16 1015.6 1009.7
02 23.09 СВ 1 н/о н/о +14.9 +12.6 86 +15 +15 1015.6 1009.7
03 23.09 штиль 0 н/о н/о +15.2 +12.8 86 +15 +15 1015.1 1009.2
04 23.09 В 2 н/о н/о +15.0 +12.5 85 +15 +15 1014.6 1008.7
05 23.09 СВ 1 н/о н/о +14.9 +12.4 85 +15 +15 1014.6 1008.7
06 23.09 ЮВ 1 н/о н/о +14.6 +12.3 86 +16 +16 1014.4 1008.5 +14.5 3 301
07 23.09 Ю 2 н/о н/о +14.5 +12.0 85 +14 +14 1014.2 1008.3
08 23.09 ЮВ 4 н/о н/о +14.8 +12.5 86 +14 +14 1014.6 1008.7
09 23.09 Ю 1 н/о н/о +15.2 +12.8 86 +16 +16 1014.3 1008.4
10 23.09 ЮЗ 1 н/о н/о +15.9 +13.1 83 +17 +17 1013.4 1007.6

 

Местоположение метеостанции Болонья (Италия): широта 44.53 долгота 11.28 высота над уровнем моря 51 м.

В архиве по умолчанию представлена погода в Болонье за последнюю неделю. Архивные данные за месяц целиком и за предыдущие месяцы, начиная с января 2011 года, Вы можете получить, выбрав интересующий диапазон дат из раскрывающегося списка и нажав кнопку "Ввод!".


*Определитесь, кто Вы:
робот инопланетянин человек

Внимание! Время в таблицах - всемирное. Для получения местного времени необходимо прибавить поправку, которая равна 1 ч.

Смотрите также архив погоды в соседних городах и на ближайших метеорологических станциях:

Погода в Болонье (Италия) (2 км)
Погода в Ферраре (Италия) (43 км)
Погода на Монте Симон (Италия) (59 км)
Погода в Пунта Марина (Италия) (81 км)
Погода во Флоренции (Италия) (81 км)
Погода в Флоренция аэропорту (Италия) (84 км)
Погода в Червии (Италия) (88 км)
Погода в Пизе (Италия) (119 км)
Погода в Римини (Италия) (120 км)
Погода в Ареццо (Италия) (126 км)

Пояснения к столбцам:

Ветер - указаны скорость ветра в м/с - средняя за 10 мин, порывы в срок и между сроками (в фигурных скобках) и направление, откуда дует ветер: С - северный, СВ - северо-восточный, В - восточный, ЮВ - юго-восточный, Ю - южный, ЮЗ - юго-западный, З - западный, СЗ - северо-западный.
Видимость - горизонтальная дальность видимости в метрах или километрах. При видимости от 1 до 10 км при отсутствии осадков обычно наблюдается дымка, при ухудшении видимости до 1 км и менее - туман. В сухую погоду видимость может ухудшаться дымом, пылью или мглою.
Явления - указаны атмосферные явления, наблюдавшиеся в срок или в последний час перед сроком; фигурными скобками обозначены явления, наблюдавшиеся между сроками (за 1-3 часа до срока); квадратными скобками обозначены град или гололедные отложения с указанием их диаметра в мм.
Облачность - указаны через наклонную черту общая и нижняя облачность в баллах и высота нижней границы облаков в метрах; квадратными скобками обозначены формы облаков: Ci - перистые, Cs - перисто-слоистые, Cc - перисто-кучевые, Ac - высококучевые, As - высокослоистые, Sc - слоисто-кучевые, Ns - слоисто-дождевые, Cu - кучевые, Cb - кучево-дождевые. Подробнее классификацию облаков см. в Атласе облаков (PDF).
T - Температура воздуха - температура, измеренная на высоте 2 м над землей.
Td - Температура точки росы - температура, при понижении до которой содержащийся в воздухе водяной пар достигнет насыщения.
f - Относительная влажность воздуха - влажноcть воздуха, измеренная на высоте 2 м над землей.
Te - Эффективная температура - температура, которую ощущает одетый по сезону человек в тени. Характеристика душности погоды. При расчете учитывается влияние влажности воздуха и скорости ветра на теплоощущения человека.
Tes - Эффективная температура на солнце - температура, которую ощущает человек, с поправкой на солнечный нагрев. Характеристика знойности погоды. Зависит от высоты солнца над горизонтом, облачности и скорости ветра. Ночью, в пасмурную погоду, а также при ветре 12 м/с и более поправка равна нулю.
P - Атмосферное давление - приведенное к уровню моря атмосферное давление.
Po - Атмосферное давление - измеренное на уровне метеостанции атмосферное давление.
Tmin - Минимальная температура - минимум температуры воздуха на высоте 2 м над землей.
Tmax - Максимальная температура - максимум температуры воздуха на высоте 2 м над землей.
R - Количество осадков - Количество выпавших осадков за период времени, мм. При наведении курсора мыши на число - период времени, за который выпало указанное количество осадков.
R24 - Количество осадков - Количество выпавших осадков за 24 часа, мм.
S - Снежный покров - Высота снежного покрова, см. При наведении курсора мыши на число - состояние снежного покрова и степень покрытия местности в баллах.